Satellite: CP4
Catalog number: 31122
Epoch time:      07151.68406620
Element set:      47
Inclination:      098.0846 deg
RA of node:       225.4935 deg
Eccentricity:    0.0087191
Arg of perigee:   076.8542 deg
Mean anomaly:     284.1991 deg
Mean motion:   14.55006898 rev/day
Decay rate:       5.99e-06 rev/day^2
Epoch rev:             645
Checksum:              320

Satellite: CP3
Catalog number: 31128
Epoch time:      07150.74707939
Element set:    0042
Inclination:      098.0820 deg
RA of node:       224.3718 deg
Eccentricity:    0.0104130
Arg of perigee:   079.9185 deg
Mean anomaly:     281.3754 deg
Mean motion:   14.51835995 rev/day
Decay rate:       -4.6e-07 rev/day^2
Epoch rev:           00629
Checksum:              303

Satellite: LIBERT
Catalog number: 31129
Epoch time:      07151.77829019
Element set:     115
Inclination:      098.0818 deg
RA of node:       225.3667 deg
Eccentricity:    0.0103757
Arg of perigee:   076.5546 deg
Mean anomaly:     284.7175 deg
Mean motion:   14.51925335 rev/day
Decay rate:       3.86e-06 rev/day^2
Epoch rev:             642
Checksum:              311

/EX
SB KEPS @ AMSAT  $ORB07151.W
Orbital Elements  07151.WEATHER

HR AMSAT ORBITAL ELEMENTS FOR WEATHER SATELLITES
FROM WA5QGD FORT WORTH,TX May 31, 2007
Send SUBSCRIBE KEPS/UNSUBSCRIBE KEPS to majordomo at amsat.org only
BID: ORB07151.W
TO ALL RADIO AMATEURS BT

Satellite: NOAA-10
Catalog number: 16969
Epoch time:      07150.63769010
Element set:    0676
Inclination:      098.7453 deg
RA of node:       167.8095 deg
Eccentricity:    0.0011660
Arg of perigee:   216.0687 deg
Mean anomaly:     143.9692 deg
Mean motion:   14.27326347 rev/day
Decay rate:       1.01e-06 rev/day^2
Epoch rev:           07672
Checksum:              319

Satellite: NOAA-11
Catalog number: 19531
Epoch time:      07151.30054487
Element set:     672
Inclination:      098.8112 deg
RA of node:       240.6729 deg
Eccentricity:    0.0012517
Arg of perigee:   079.7722 deg
Mean anomaly:     280.4897 deg
Mean motion:   14.14846862 rev/day
Decay rate:       2.04e-06 rev/day^2
Epoch rev:           96376
Checksum:              319

Satellite: NOAA-12
Catalog number: 21263
Epoch time:      07150.89627046
Element set:    0168
Inclination:      098.7503 deg
RA of node:       148.1656 deg
Eccentricity:    0.0013169
Arg of perigee:   153.4763 deg
Mean anomaly:     206.7086 deg
Mean motion:   14.25529715 rev/day
Decay rate:       1.36e-06 rev/day^2
Epoch rev:           83378
Checksum:              318

Satellite: MET-3/5
Catalog number: 21655
Epoch time:      07150.92728700
Element set:    0276
Inclination:      082.5530 deg
RA of node:       015.1373 deg
Eccentricity:    0.0011985
Arg of perigee:   252.9351 deg
Mean anomaly:     107.0458 deg
Mean motion:   13.17011306 rev/day
Decay rate:        5.1e-07 rev/day^2
Epoch rev:           75913
Checksum:              274

Satellite: MET-2/21
Catalog number: 22782
Epoch time:      07150.86876924
Element set:    0838
Inclination:      082.5495 deg
RA of node:       055.6542 deg
Eccentricity:    0.0020910
Arg of perigee:   286.5399 deg
Mean anomaly:     073.3464 deg
Mean motion:   13.83616066 rev/day
Decay rate:        4.0e-08 rev/day^2
Epoch rev:           69412
Checksum:              327

Satellite: OKEAN-4
Catalog number: 23317
Epoch time:      07150.83401537
Element set:    0276
Inclination:      082.5369 deg
RA of node:       312.7241 deg
Eccentricity:    0.0021008
Arg of perigee:   313.6531 deg
Mean anomaly:     046.2934 deg
Mean motion:   14.82506626 rev/day
Decay rate:       3.29e-06 rev/day^2
Epoch rev:           68148
Checksum:              284

Satellite: NOAA-14
Catalog number: 23455
Epoch time:      07150.95200436
Element set:    0651
Inclination:      098.9898 deg
RA of node:       217.0439 deg
Eccentricity:    0.0010170
Arg of perigee:   144.8601 deg
Mean anomaly:     215.3246 deg
Mean motion:   14.13720557 rev/day
Decay rate:       2.01e-06 rev/day^2
Epoch rev:           64020
Checksum:              271

Satellite: SICH-1
Catalog number: 23657
Epoch time:      07150.79526691
Element set:    0079
Inclination:      082.5273 deg
RA of node:       093.7005 deg
Eccentricity:    0.0022636
Arg of perigee:   303.7052 deg
Mean anomaly:     056.2022 deg
Mean motion:   14.81486755 rev/day
Decay rate:        6.8e-07 rev/day^2
Epoch rev:           63345
Checksum:              300

Satellite: NOAA-15
Catalog number: 25338
Epoch time:      07151.80752209
Element set:      14
Inclination:      098.5301 deg
RA of node:       148.9532 deg
Eccentricity:    0.0011756
Arg of perigee:   077.6883 deg
Mean anomaly:     282.6089 deg
Mean motion:   14.24644353 rev/day
Decay rate:       1.19e-06 rev/day^2
Epoch rev:           47036
Checksum:              308

Satellite: RESURS
Catalog number: 25394
Epoch time:      07150.78445659
Element set:     652
Inclination:      098.4409 deg
RA of node:       206.0019 deg
Eccentricity:    0.0000489
Arg of perigee:   230.6854 deg
Mean anomaly:     129.4282 deg
Mean motion:   14.24136899 rev/day
Decay rate:        6.0e-08 rev/day^2
Epoch rev:           46187
Checksum:              316

Satellite: FENGYUN1
Catalog number: 25730
Epoch time:      07151.71559266
Element set:     128
Inclination:      098.6871 deg
RA of node:       136.2078 deg
Eccentricity:    0.0020816
Arg of perigee:   170.4933 deg
Mean anomaly:     189.6604 deg
Mean motion:   14.07507143 rev/day
Decay rate:       5.77e-06 rev/day^2
Epoch rev:           41515
Checksum:              304

Satellite: OKEAN-0
Catalog number: 25860
Epoch time:      07150.91521062
Element set:    0066
Inclination:      097.7299 deg
RA of node:       153.9721 deg
Eccentricity:    0.0001995
Arg of perigee:   072.6827 deg
Mean anomaly:     287.4602 deg
Mean motion:   14.73454999 rev/day
Decay rate:        9.3e-07 rev/day^2
Epoch rev:           42295
Checksum:              328

Satellite: NOAA-16
Catalog number: 26536
Epoch time:      07150.90501558
Element set:    0425
Inclination:      099.1139 deg
RA of node:       127.5464 deg
Eccentricity:    0.0009919
Arg of perigee:   218.5424 deg
Mean anomaly:     141.5019 deg
Mean motion:   14.12431122 rev/day
Decay rate:       3.01e-06 rev/day^2
Epoch rev:           34466
Checksum:              280

Satellite: NOAA-17
Catalog number: 27453
Epoch time:      07150.95116601
Element set:    0437
Inclination:      098.5804 deg
RA of node:       220.6655 deg
Eccentricity:    0.0012619
Arg of perigee:   140.8698 deg
Mean anomaly:     219.3410 deg
Mean motion:   14.23881892 rev/day
Decay rate:        4.0e-07 rev/day^2
Epoch rev:           25626
Checksum:              302

Satellite: NOAA-18
Catalog number: 28654
Epoch time:      07150.95178394
Element set:    0970
Inclination:      098.8273 deg
RA of node:       092.5234 deg
Eccentricity:    0.0013861
Arg of perigee:   321.1618 deg
Mean anomaly:     038.8558 deg
Mean motion:   14.11068255 rev/day
Decay rate:       1.70e-06 rev/day^2
Epoch rev:           10442
Checksum:              311

/EX
SB KEPS @ AMSAT  $ORB07151.M
Orbital Elements  07151.MISC

HR AMSAT ORBITAL ELEMENTS FOR MANNED AND MISCELLANEOUS SATELLITES
FROM WA5QGD FORT WORTH,TX May 31, 2007
Send SUBSCRIBE KEPS/UNSUBSCRIBE KEPS to majordomo at amsat.org only
BID: ORB07151.M
TO ALL RADIO AMATEURS BT

Satellite: HUBBLE
Catalog number: 20580
Epoch time:      07150.77813779
Element set:     886
Inclination:      028.4691 deg
RA of node:       303.6406 deg
Eccentricity:    0.0003578
Arg of perigee:   269.6384 deg
Mean anomaly:     090.3794 deg
Mean motion:   15.00245448 rev/day
Decay rate:       4.77e-06 rev/day^2
Epoch rev:           73734
Checksum:              328

Satellite: UARS
Catalog number: 21701
Epoch time:      07150.97582338
Element set:    0092
Inclination:      056.9766 deg
RA of node:       028.6268 deg
Eccentricity:    0.0096537
Arg of perigee:   155.6754 deg
Mean anomaly:     204.8905 deg
Mean motion:   15.48051761 rev/day
Decay rate:      3.952e-05 rev/day^2
Epoch rev:           86308
Checksum:              332

Satellite: PO-34
Catalog number: 25520
Epoch time:      07150.54412151
Element set:    0753
Inclination:      028.4600 deg
RA of node:       226.8323 deg
Eccentricity:    0.0005274
Arg of perigee:   069.1428 deg
Mean anomaly:     290.9729 deg
Mean motion:   15.17001396 rev/day
Decay rate:       5.10e-06 rev/day^2
Epoch rev:           47484
Checksum:              280

Satellite: ISS
Catalog number: 25544
Epoch time:      07151.77340713
Element set:     309
Inclination:      051.6319 deg
RA of node:       188.7310 deg
Eccentricity:    0.0007920
Arg of perigee:   261.8727 deg
Mean anomaly:     098.1920 deg
Mean motion:   15.78061975 rev/day
Decay rate:        8.0e-08 rev/day^2
Epoch rev:           48818
Checksum:              308

Satellite: OO-38
Catalog number: 26063
Epoch time:      07150.74820831
Element set:    0923
Inclination:      100.2267 deg
RA of node:       150.1493 deg
Eccentricity:    0.0036551
Arg of perigee:   208.4515 deg
Mean anomaly:     151.4651 deg
Mean motion:   14.35806483 rev/day
Decay rate:       -8.0e-08 rev/day^2
Epoch rev:           38455
Checksum:              285

Satellite: UWE-1
Catalog number: 28892
Epoch time:      07150.72965570
Element set:    0760
Inclination:      098.1338 deg
RA of node:       047.7188 deg
Eccentricity:    0.0017497
Arg of perigee:   163.5033 deg
Mean anomaly:     196.6747 deg
Mean motion:   14.59506646 rev/day
Decay rate:        8.8e-07 rev/day^2
Epoch rev:           08466
Checksum:              350

